Погода в Чиребоне

Индонезия     6°44′38″S   108°33′23″E
темп.,
°C
ветер,
м/с
пор.,
м/с
влажн.,
%
обл.,
%
осадки,
мм/ч
давл.,
гПа
погр.,
м
2 марта, вт
вт201:00+25ююз118788 0.8 101136
04:00+24зсз129284 2.6 100972
07:00+25з358690 2.9 1011333
10:00+29сз567455 0.1 1012913
13:00+30сз786639 0.7 10101090
16:00+29сз567141 1.1 1008823
19:00+25зсз348671 2.9 1010131
22:00+25з2285100 0.2 101258
3 марта, ср
ср301:00+25з128796 0.2 101055
04:00+24з128658 0.0 100955
07:00+25з368348 0.0 1011347
10:00+29зсз567456 0.1 1012845
13:00+31сз556866 1.6 10091093
16:00+28ссз567754 4.6 1007782
19:00+25з358977 12.4 1010170
22:00+24ююв2394100 7.8 101287
4 марта, чт
чт401:00+24юз2389100 11.3 101193
04:00+24юз2386100 1.0 101084
07:00+24юз2284100 1.6 101260
10:00+27зсз237499 0.0 1012286
13:00+28ссз3471100 0.0 1010755
16:00+28ссз3376100 1.6 1008680
19:00+25з1288100 14.1 101163
22:00+24з2389100 10.6 101290
5 марта, пт
пт501:00+23зсз3494100 18.3 1011129
04:00+23з3392100 1.4 1010104
07:00+25ююв238396 1.4 1011114
10:00+30вюв336341 0.0 1012771
13:00+30всв346528 0.9 1009860
16:00+29с336924 3.8 1007560
19:00+24сз238743 6.9 1010125
22:00+24зюз338727 3.1 101173
6 марта, сб
сб601:00+24зюз228344 3.1 101040
04:00+24зюз118490 0.0 100940
07:00+25ююз118185 0.0 101186
10:00+28с2374100 3.5 1011551
13:00+28с447595 10.9 1009624
16:00+26сз3687100 10.3 1008250
19:00+24з3594100 18.0 1010203
22:00+23юз2292100 5.8 101281